Theta_e
298 298 296 297 297 297 297 297 295 292 294 298 299 305 304 305 307 305 305 312 311 310 309 308 308 308 307 307 307 308 310 311 313 314 315 316 318 321
298 297 296 296 296 296 297 298 298 295 292 298 299 302 303 303 307 303 304 311 311 309 308 309 308 307 306 306 307 307 308 309 310 311 313 314 315 314
298 298 296 297 296 296 296 296 296 296 293 296 299 302 302 301 302 304 305 307 307 309 308 308 308 307 306 306 306 307 307 307 308 309 310 311 313 314
297 297 297 297 297 296 295 295 295 296 295 292 297 299 300 301 301 302 302 302 304 308 309 309 308 307 307 306 306 306 306 307 307 308 309 310 311 312
296 296 297 297 296 296 296 296 296 295 295 294 294 297 299 301 299 301 301 302 302 307 308 307 307 307 306 306 305 305 305 305 306 306 308 309 310 311
294 294 295 296 296 297 297 296 296 295 295 295 294 295 297 299 299 298 297 300 300 301 304 305 305 306 306 305 305 304 304 304 305 306 306 307 308 309
295 294 294 297 300 299 298 296 296 295 294 292 293 294 294 295 294 297 294 296 296 299 300 300 300 301 301 304 304 303 301 302 303 305 305 305 305 307
291 294 294 296 298 299 298 297 298 295 294 293 292 292 291 290 291 291 291 291 288 297 295 295 300 299 300 301 304 302 301 301 301 303 303 303 304 304
291 293 294 294 295 295 296 297 297 298 298 294 293 294 288 288 288 286 286 287 288 288 290 288 294 296 299 300 301 300 300 300 300 300 301 301 301 302
293 293 293 293 294 291 291 291 291 292 293 294 292 288 288 287 288 288 287 286 287 288 292 286 292 290 294 297 299 298 298 299 299 299 299 300 299 300
292 293 293 293 295 294 289 288 288 289 293 294 294 294 295 296 294 292 287 286 285 286 289 289 288 289 292 291 294 296 297 298 298 298 299 299 298 298
291 292 293 293 295 295 290 287 285 286 290 289 291 291 291 290 292 290 290 286 286 285 289 287 288 288 286 291 291 293 294 297 296 296 296 296 296 294
290 290 291 293 293 293 292 291 289 291 291 291 291 290 290 289 289 289 289 288 287 287 291 289 288 288 288 287 291 291 292 291 291 292 294 294 294 293
289 290 291 292 292 292 291 292 292 291 290 289 289 288 288 289 289 289 289 289 289 288 290 292 288 288 287 286 287 291 291 291 291 290 290 293 294 294
291 291 292 292 293 292 293 293 292 289 288 287 286 287 287 288 289 290 290 290 290 291 291 290 289 289 287 285 286 287 288 289 292 291 290 290 290 291
292 291 292 292 292 291 291 291 290 290 289 288 288 289 288 288 287 288 287 288 287 288 290 291 291 290 288 288 288 286 288 286 289 290 289 289 289 290
291 291 289 288 288 288 288 289 289 289 287 288 288 288 288 288 288 288 287 286 285 284 285 288 289 289 288 287 285 286 287 287 289 288 288 287 287 288
290 288 287 287 287 287 286 287 288 288 288 288 288 288 287 287 287 288 288 286 285 285 285 286 286 286 286 287 290 285 286 286 287 287 287 285 285 287
288 288 287 287 287 287 287 286 286 287 288 288 287 287 287 287 287 286 287 287 286 286 286 287 285 284 282 281 286 292 285 285 286 285 286 286 285 287
288 288 287 287 287 287 287 287 287 287 287 287 288 288 287 286 286 286 286 285 285 285 285 286 286 285 283 282 283 285 289 286 285 284 285 287 288 291
287 288 288 288 288 288 288 288 288 287 287 286 287 287 287 287 286 287 287 287 287 285 284 285 286 290 288 287 283 283 287 290 288 286 285 284 283 284
287 287 288 289 289 289 289 288 288 287 286 286 287 287 288 288 287 287 287 286 286 286 286 287 289 289 287 285 283 284 286 289 290 290 290 288 284 282
288 288 288 289 289 289 289 289 288 287 287 286 287 286 287 287 289 288 288 288 288 287 287 286 287 287 286 285 286 285 285 286 286 286 287 291 291 291
Wind_Speed
5 5 5 2 2 6 6 8 6 5 6 6 3 3 5 5 6 6 5 13 13 11 10 9 7 6 4 3 4 5 7 9 9 9 11 12 15 14
2 1 2 3 4 4 6 7 6 6 5 5 6 4 8 5 5 7 7 12 16 13 10 8 9 7 6 6 7 7 7 9 11 12 12 13 14 14
3 2 4 4 4 4 4 5 6 6 7 6 6 5 7 5 7 6 7 7 8 14 13 12 11 10 9 9 8 9 11 11 13 14 15 16 16 15
7 6 5 3 6 5 4 7 5 7 6 11 9 5 5 2 5 15 6 7 7 17 18 16 13 12 11 11 10 10 12 15 15 15 16 17 19 18
9 9 9 3 6 5 5 6 5 6 7 8 8 7 6 3 8 14 7 8 5 9 18 14 14 14 13 12 12 12 12 13 17 16 16 16 18 20
9 9 10 9 8 4 6 8 6 6 6 7 7 7 7 6 5 4 6 4 5 6 8 9 10 14 14 15 14 12 12 12 13 16 17 17 18 20
10 10 9 11 14 8 5 3 6 7 5 5 7 6 6 5 3 2 4 2 3 3 4 3 5 6 7 16 14 10 9 10 14 16 17 17 18 21
12 12 9 12 11 10 2 3 7 6 5 5 5 8 4 1 2 2 1 1 2 1 2 4 4 5 5 5 9 8 11 13 14 17 12 14 18 21
13 11 9 9 11 10 6 9 10 12 9 4 7 9 4 6 5 3 3 3 3 2 1 6 4 6 5 5 5 11 15 15 10 7 11 14 18 20
10 11 10 11 10 8 7 7 7 7 7 4 5 4 1 4 5 5 6 4 1 2 4 5 3 4 6 6 14 14 15 14 11 8 12 14 16 18
10 11 9 6 14 13 8 7 6 7 8 10 9 9 10 11 1 3 4 4 4 4 6 4 3 5 6 6 7 15 15 14 16 13 14 16 18 20
8 9 17 15 18 13 5 4 5 4 4 5 5 6 7 7 9 4 1 5 3 3 5 6 4 3 3 2 6 7 6 13 13 13 15 16 16 8
7 7 7 16 15 16 12 5 3 3 5 3 2 3 3 3 3 3 3 3 4 4 2 4 3 3 4 2 2 3 4 5 6 7 13 15 15 11
8 7 8 14 13 11 9 11 10 6 2 3 2 2 3 2 1 1 1 2 2 4 2 4 2 3 2 3 4 4 6 6 7 6 7 11 17 12
7 9 12 13 14 11 13 14 11 5 5 4 3 2 2 3 4 2 6 5 4 4 3 3 3 2 3 4 4 3 4 4 7 6 5 8 7 4
12 7 10 11 11 9 8 8 6 6 7 7 7 7 3 3 3 1 3 4 4 4 6 6 7 7 4 5 6 6 5 4 2 4 6 6 6 7
10 5 5 6 7 7 6 5 5 5 5 6 6 6 6 5 5 5 3 4 4 3 3 3 5 5 5 7 6 6 6 6 5 5 6 6 6 7
6 6 7 7 7 7 7 6 6 8 5 6 6 5 6 5 4 4 4 4 4 4 4 3 4 5 6 8 14 7 6 4 3 4 6 7 9 7
7 7 7 7 7 7 7 7 7 6 6 6 5 5 5 5 7 5 4 4 4 4 4 4 4 4 6 7 3 10 6 4 4 5 6 7 8 6
8 8 8 7 7 7 7 7 7 6 6 5 5 5 5 6 5 5 5 5 5 5 5 4 4 4 5 5 5 4 14 8 6 7 7 7 6 12
8 8 8 8 7 7 7 7 7 7 7 6 5 4 4 5 5 4 5 9 8 4 5 5 4 10 5 5 5 7 6 17 13 7 5 6 6 5
7 8 8 8 8 7 8 7 6 7 6 6 6 6 5 4 5 6 6 5 5 5 5 5 6 5 4 6 7 8 5 4 10 20 20 15 4 3
7 7 8 8 8 7 7 7 7 6 6 6 6 6 6 5 4 5 6 6 6 6 6 5 3 3 3 3 7 5 6 6 3 4 5 17 21 20
Wind_Direction
230 229 220 264 248 277 269 279 281 269 272 271 232 281 211 204 205 191 223 198 196 189 183 180 179 179 189 231 259 273 288 288 279 269 248 233 255 265
252 295 240 225 229 243 273 257 283 278 272 285 286 304 303 297 209 207 226 211 190 191 194 191 190 199 212 230 256 274 277 282 284 282 279 272 260 260
270 200 228 247 223 223 244 278 286 282 283 276 252 249 257 300 321 234 233 172 181 201 204 203 202 207 221 234 243 261 279 280 281 284 283 279 277 271
4 338 299 212 230 224 224 236 237 252 256 260 272 250 224 223 304 265 229 222 194 197 209 207 210 216 223 234 245 253 267 283 287 285 284 286 284 280
347 339 322 280 239 225 235 241 231 253 253 254 263 273 264 185 238 262 211 235 218 223 209 214 219 227 232 235 244 253 263 278 284 283 281 283 286 283
0 342 318 336 305 281 223 223 225 236 257 270 251 257 259 255 263 259 270 269 240 252 200 220 226 233 238 246 251 253 254 262 269 281 286 290 286 284
359 15 349 315 332 308 312 287 244 218 225 249 267 262 246 241 233 286 253 307 352 2 271 236 215 214 229 245 247 240 250 261 266 268 282 295 296 296
359 342 24 5 333 354 122 294 256 264 224 231 244 252 279 147 91 105 48 10 293 221 291 275 289 273 261 255 213 224 248 264 270 274 275 290 294 293
6 357 2 22 11 360 27 37 39 50 29 356 282 256 197 183 147 157 167 179 229 206 158 265 259 251 266 286 250 253 258 264 261 282 283 293 290 294
24 14 7 11 38 36 24 25 18 13 1 17 15 318 147 174 180 180 203 209 181 187 189 249 225 243 249 241 245 249 254 266 275 265 275 278 288 298
18 18 23 15 44 45 39 35 22 12 1 1 1 11 3 8 240 201 192 193 216 217 196 220 193 241 231 237 243 247 249 256 262 271 278 286 293 299
27 19 13 16 18 43 55 34 12 335 347 351 355 14 26 13 16 22 233 220 222 218 200 201 188 176 274 214 241 233 240 245 259 271 274 278 287 295
7 6 18 7 8 12 20 12 353 326 327 337 4 3 16 28 13 5 336 293 252 256 221 192 208 194 224 261 212 227 224 249 254 266 271 272 276 286
2 4 356 359 1 10 10 357 345 330 313 322 328 342 333 333 187 270 299 294 280 275 291 254 234 214 222 241 239 189 204 222 222 235 264 268 272 252
354 346 353 356 2 360 359 359 -0 356 341 339 322 325 306 290 315 243 203 218 232 234 218 225 236 245 239 251 275 282 255 227 237 220 237 265 268 225
342 342 353 357 6 4 2 0 359 353 352 347 342 343 317 310 312 308 295 311 272 222 206 217 217 218 243 241 251 262 266 245 248 237 239 256 273 269
317 338 5 356 356 356 351 353 353 352 347 335 332 333 332 330 331 336 307 297 281 295 284 210 219 251 269 269 270 260 259 257 250 260 275 276 279 291
355 360 3 356 356 349 344 345 349 350 347 331 332 331 331 324 315 315 303 301 302 305 308 305 306 289 268 249 236 250 262 265 256 267 268 264 267 267
9 3 359 355 348 347 347 343 339 336 338 330 328 332 334 328 329 318 310 300 285 272 269 273 274 279 276 275 286 220 251 259 240 248 252 256 262 261
5 359 354 353 350 347 343 341 334 333 335 330 343 344 347 330 336 336 326 321 318 312 300 290 272 271 273 286 294 287 214 244 247 256 255 254 254 269
355 353 351 350 352 343 341 338 334 338 341 335 331 337 343 335 329 331 323 331 329 307 302 298 276 281 262 264 250 262 260 219 230 241 254 263 262 262
353 347 346 346 347 343 341 337 334 340 341 336 336 337 346 339 325 326 325 318 318 311 298 295 288 275 265 260 271 279 279 268 238 243 245 243 245 265
352 348 342 341 341 339 340 341 339 336 339 336 333 332 334 335 342 332 326 336 340 323 316 307 291 274 269 263 287 284 290 296 279 271 257 238 243 248